Weather in Clichy

France     48°54′02″N   2°18′27″E
temp.,
°C
wind,
m/s
gust,
m/s
humid.,
%
clouds,
%
prec.,
mm/h
press.,
hPa
HPBL,
m
20 june, sun
sun2023:00+16nne3794100 2.3 1009304
02:00+16s159843 2.5 1009232
05:00+16sw41095100 0.0 1009446
08:00+16sw378899 0.0 1010471
11:00+20wsw2362100 0.0 1010863
14:00+25s134432 0.0 10081546
17:00+23ese3456100 0.1 1006965
20:00+20ese4882100 1.3 1005285
21 june, mon
mon2123:00+17sse1294100 3.2 1006179
02:00+17nw129598 7.3 1006143
05:00+16sse119681 0.4 100636
08:00+17s249137 0.5 1007336
11:00+21ssw3463100 0.0 1008996
14:00+24ssw344431 0.0 10082029
17:00+24s344885 0.1 10071711
20:00+20s248212 3.1 1008214
22 june, tue
tue2223:00+17ne12868 3.4 101044
02:00+14ne499636 4.8 1011293
05:00+12ne4796100 0.1 1012329
08:00+13ne4793100 0.1 1013385
11:00+14ne4589100 0.0 1014545
14:00+16nne4580100 0.1 1015735
17:00+16ne4778100 0.1 1016859
20:00+15nne5977100 0.1 1017725
23 june, wed
wed2323:00+14n4979100 0.0 1019762
02:00+13nne497596 0.0 1020584
05:00+13n3874100 0.0 1020492
08:00+12nne387594 0.0 1020482
11:00+13nne4773100 0.0 1021603
14:00+15n3567100 0.0 1021739
17:00+18nne355210 0.0 10201187
20:00+18n34569 0.0 10201244
24 june, thu
thu2423:00+14n387363 0.0 1022320
02:00+14n367185 0.0 1022314
05:00+11nnw258211 0.0 1022178
08:00+12n237638 0.0 1023282
11:00+17nnw23485 0.0 1023976
14:00+20nnw33335 0.0 10231460
17:00+21nnw34395 0.0 10221881
20:00+20nnw445277 0.0 10221122